Home > Weather > Male > Past weeks

Flag for Maldives Past Weather in Male, Maldives — Yesterday and Last 2 Weeks

Now
82 °F

Partly cloudy.


Feels Like: 91 °F
Forecast: 81 / 87 °F
Wind: 21 mph from Northwest

Location: Male Airport

Current Time: Aug 30, 2016 at 4:44:34 AM

Latest Report: Aug 30, 2016 at 4:00 AM


Visibility: N/A

Pressure: 29.77 "Hg

Humidity: 84%

Dew Point: 77 °F

Location of MaleLocation

Past Weather in Male — Graph

°F

Male Temperature Yesterday

Maximum temperature yesterday: 84 °F (at 11:00 AM)
Minimum temperature yesterday: 79 °F (at 2:00 AM)
Average temperature yesterday: 82 °F

High & Low Weather Summary for the Past Weeks

 TemperatureHumidityPressure
High90 °F (Aug 15, 1:00 PM)100% (Aug 20, 1:00 AM)29.92 "Hg (Aug 20, 1:00 AM)
Low75 °F (Aug 22, 2:00 PM)66% (Aug 15, 10:00 AM)29.74 "Hg (Aug 20, 3:00 PM)
Average83 °F82%29.84 "Hg
* Reported Aug 15 4:00 AM — Aug 30 3:00 AM, Male, Weather by CustomWeather, © 2016

Note: Actual official high and low records may vary slightly from our data, if they occured in-between our weather recording intervals... More about our weather records

Advertising

Male Weather History for the Previous 24 Hours

Scroll right to see more
 ConditionsComfort  
Time TempWeatherWind HumidityBarometerVisibility
3:00 AM
Tue, Aug 30
81 °FPartly cloudy.16 mph94%29.77 "HgN/A
2:00 AM82 °FPartly cloudy.20 mph84%29.80 "HgN/A
1:00 AM79 °FPartly cloudy.12 mph89%29.80 "HgN/A
12:00 AM82 °FPartly cloudy.9 mph89%29.83 "HgN/A
11:00 PM
Mon, Aug 29
82 °FPassing clouds.16 mph89%29.86 "HgN/A
10:00 PM82 °FPassing clouds.17 mph89%29.86 "HgN/A
9:00 PM82 °FMostly cloudy.14 mph89%29.86 "HgN/A
8:00 PM81 °FLight rain. Mostly cloudy.16 mph89%29.86 "Hg4 mi
6:00 PM81 °FMore clouds than sun.14 mph89%29.80 "HgN/A
5:00 PM84 °FMore clouds than sun.15 mph84%29.77 "HgN/A
4:00 PM84 °FMore clouds than sun.17 mph84%29.77 "HgN/A
2:00 PM84 °FMore clouds than sun.14 mph84%29.80 "HgN/A
1:00 PM82 °FOvercast.16 mph79%29.80 "HgN/A
12:00 PM82 °FOvercast.14 mph84%29.83 "HgN/A
11:00 AM84 °FMore clouds than sun.16 mph84%29.89 "HgN/A
10:00 AM82 °FOvercast.15 mph84%29.89 "HgN/A
9:00 AM82 °FLight rain. Overcast.18 mph84%29.89 "HgN/A
8:00 AM82 °FOvercast.22 mph84%29.89 "HgN/A
7:00 AM81 °FLight rain. Overcast.17 mph89%29.86 "Hg6 mi
6:00 AM79 °FLight rain. More clouds than sun.18 mph94%29.83 "Hg6 mi
4:00 AM79 °FLight rain. Mostly cloudy.23 mph94%29.83 "Hg4 mi
Weather by CustomWeather, © 2016

See weather overviewHow to use our weather pages